Location: Sungai Apap
(2.6167°N, 113.3833°E)
Time: 15:26:52
(UTC+00:00)

SL-16 R/B - Pass Details

Date: 25 May 2024
Orbit: 985 x 1007 km, 99.7° (Epoch: 14 June)

Event Time Altitude Azimuth Distance (km) Brightness Sun altitude
Exits shadow 20:19:41 17° 321° (NW) 2,275 4.3 -27.6°
Drops below altitude 10° 20:21:08 10° 327° (NNW) 2,771 4.8 -27.2°
Sets 20:23:45 0° 334° (NNW) 3,720 5.5 -26.7°
